Location: Brabourne
(51.1333°N, 1.0000°E)
Time: 20:49:43
(UTC+00:00)

Cosmos 1825 Rocket - Pass Details

Date: 19 October 2021
Orbit: 604 x 631 km, 82.5° (Epoch: 03 December)

Event Time Altitude Azimuth Distance (km) Brightness Sun altitude
Rises 18:20:05 0° 0° (N) 2,887 7.0 -14.1°
Reaches altitude 10° 18:22:55 10° 19° (NNE) 1,973 6.0 -14.6°
Enters shadow 18:25:23 18° 53° (NE) 1,502 5.1 -14.9°
